Location: Maccacari
(45.1333°N, 11.1333°E)
Time: 03:23:05
(UTC+00:00)

Altair - Pass Details

Date: 31 January 2021
Orbit: 1501 x 1682 km, 47.2° (Epoch: 01 March)

Event Time Altitude Azimuth Distance (km) Brightness Sun altitude
Rises 00:03:29 0° 180° (S) 4,763 - -61.3°
Reaches altitude 10° 00:07:55 10° 162° (SSE) 3,817 - -61.1°
Maximum altitude 00:13:44 18° 124° (SE) 3,285 - -60.7°
Drops below altitude 10° 00:19:39 10° 87° (E) 3,907 - -60.3°
Exits shadow 00:20:48 - 82° (E) 4,132 9.9 -60.2°
Sets 00:24:12 0° 70° (ENE) 4,920 10.5 -59.9°
